Weather in Borisovskoye

Russia / Omsk Oblast     54°37′25″N   72°35′11″E
temp.,
°C
wind,
m/s
gust,
m/s
humid.,
%
clouds,
%
prec.,
mm/h
press.,
hPa
HPBL,
m
21 april, wed
wed2100:000wsw6124989 0.0 1026348
03:000w71649100 0.0 1023509
06:000wnw61261100 0.0 1024387
09:00+3nnw68665 0.0 1025675
12:00+5nnw68445 0.0 10261378
15:00+7nnw7940100 0.0 10271868
18:00+6n784068 0.0 10301839
21:00+3ne610555 0.0 1033475
22 april, thu
thu2200:000ne48705 0.0 1036393
03:00−1ne37730 0.0 1038318
06:00−2ne36755 0.0 1041249
09:00+1e34535 0.0 1043718
12:00+4ese33405 0.0 10441233
15:00+6se33352 0.0 10441453
18:00+7se33350 0.0 10441429
21:00+4se34490 0.0 104559
23 april, fri
fri2300:00+2se36575 0.0 1045110
03:00+1sse49640 0.0 1045195
06:000sse38690 0.0 1046162
09:00+4sse57490 0.0 1046486
12:00+7sse55380 0.0 10451298
15:00+10sse553022 0.0 10431486
18:00+10sse45281 0.0 10421600
21:00+6se364225 0.0 1042102
24 april, sat
sat2400:00+4sse485153 0.0 1041148
03:00+3se4856100 0.0 1039135
06:00+2sse36617 0.0 1039110
09:00+6s57455 0.0 1038436
12:00+9s563125 0.0 10371285
15:00+12s5525100 0.0 10351620
18:00+11sse5525100 0.0 10331617
21:00+8se4839100 0.0 1033142
25 april, sun
sun2500:00+6sse51246100 0.0 1031285
03:00+6sse51247100 0.0 1031313
06:00+5se51252100 0.0 1029271
09:00+8sse71241100 0.0 1028506
12:00+12sse81029100 0.0 1026985
15:00+14sse81124100 0.0 10241721
18:00+15s7102695 0.0 10221895
21:00+11sse614353 0.0 1021328